sat.trackr.live / text

‹ back to catalog

COSMOS 2451

NORAD 35498 · 2009-036A

PAYLOAD ACTIVE UNKNOWN

§ Identity

Operator
Country
CIS
Launch date
2009-07-06
Launch site
PLMSC
Launch vehicle
Mass (kg)
RCS (m²)
0.78

External: N2YO · Heavens-Above · Gunter

§ Orbital elements

Epoch: 2026-05-25T04:39:12.694752Z

Period
116.05 min
Inclination
82.4860°
Eccentricity
0.0005461
Mean motion
12.40870061 rev/d
Perigee alt
1,498.6 km
Apogee alt
1,507.2 km
Semi-major
7,881.1 km
B*
2.1973e-4
RAAN
106.6290°
Arg perigee
262.7467°
Mean anomaly
97.2990°
Rev number
76,479

§ Raw data

COSMOS 24511 35498U 09036A   26145.19389693  .00000039  00000+0  21973-3 0  99992 35498  82.4860 106.6290 0005461 262.7467  97.2990 12.40870061764791

JSON: /api/v1/satellites/35498 · /tle

For live sub-satellite position, see the globe view (requires WebGL).

§ Visibility from observer

Set your observer location to see the next 7 days of passes ≥ 10°. The values pass through the URL so the page stays shareable.

No JS? Fill the form by hand. The geolocation button needs JavaScript.